{"data":{"norad_id":66489,"epoch":"2026-09-20T12:08:31.852608Z","epoch_age_seconds":89327,"freshness":"FRESH","line1":"1 66489U 25263E   26263.50592422  .00007173  00000+0  26990-3 0  9995","line2":"2 66489  42.9993 330.4665 0002208 231.8829 128.1824 15.27585239 48693","mean_motion":15.27585239,"eccentricity":0.0002208,"inclination_deg":42.9993,"raan_deg":330.4665,"arg_perigee_deg":231.8829,"mean_anomaly_deg":128.1824,"bstar":0.0002699,"rev_number":4869,"period_min":94.266425416801,"perigee_km":481.51846220754,"apogee_km":484.54835505999,"semimajor_km":6861.1704086338,"source":"CELESTRAK","updated_at":"2026-09-21T09:00:35.919836Z"}}